Temp
61 61 61 62 62 63 63 63 63 63 63 63 64 64 64 64 64 65 64 73 71 70 69 69 66 66 65 61 62 58 48 43 49 51 55 57 56 58 59 56 56 62 56 57 57
61 61 61 61 61 62 62 63 63 63 63 63 63 63 63 64 63 63 72 72 72 70 69 67 63 63 59 58 59 54 44 50 56 55 55 58 57 58 55 54 55 57 54 55 57
61 61 61 61 61 61 62 62 62 62 62 62 62 63 62 61 62 66 71 72 72 70 71 69 67 65 56 57 56 53 50 55 60 60 61 58 55 59 55 54 58 59 57 53 52
61 61 61 61 61 61 61 62 62 62 62 62 62 62 62 61 55 68 70 71 70 70 70 66 64 59 55 55 59 51 57 59 61 61 59 57 56 56 56 64 63 62 59 53 53
61 60 60 60 61 61 61 62 62 62 62 62 62 62 61 57 62 68 68 68 67 68 67 65 61 59 54 55 55 54 56 60 60 60 58 58 58 56 56 59 62 61 56 54 55
60 60 60 60 60 61 61 61 62 61 61 62 62 62 58 53 69 68 67 65 67 65 63 63 61 61 57 57 55 55 56 58 58 59 58 57 54 55 62 57 59 59 57 54 56
60 60 59 59 60 61 61 61 61 61 61 62 63 62 58 62 68 66 67 63 64 64 62 63 62 58 56 55 59 57 54 54 58 57 56 55 52 51 65 57 58 58 57 56 56
60 59 59 59 60 60 61 61 61 61 61 62 63 57 57 66 63 65 66 64 66 66 64 63 64 60 55 58 56 49 47 44 53 53 54 57 52 58 60 56 57 56 55 55 57
60 59 59 60 60 60 60 60 60 61 62 63 56 55 56 67 63 67 66 63 64 64 64 69 62 56 54 48 44 41 40 41 49 55 53 50 49 57 57 53 55 54 55 56 58
60 59 59 60 60 60 60 61 60 61 62 64 65 53 60 61 63 65 64 66 61 60 59 56 51 47 45 44 38 39 38 42 45 49 46 45 48 57 58 54 53 54 53 53 58
60 60 60 60 60 61 57 55 57 55 55 56 56 57 60 62 63 62 64 63 60 55 47 49 44 43 52 49 54 44 42 41 48 52 47 47 50 55 60 55 52 57 59 59 56
60 60 60 60 60 60 54 51 49 50 47 56 57 58 62 61 57 58 64 56 53 46 48 44 41 52 52 50 47 46 45 46 52 55 47 49 50 55 57 61 61 57 59 61 64
60 59 59 59 59 57 52 51 56 53 43 51 55 56 58 61 56 57 60 54 49 46 45 47 49 53 51 47 46 45 43 46 46 48 45 44 45 45 51 57 62 64 63 64 65
59 59 59 59 56 52 51 55 55 52 37 47 52 55 56 58 52 56 57 56 47 47 45 44 53 52 46 45 48 44 49 49 46 39 38 42 38 44 48 51 55 58 61 60 60
58 58 59 60 52 52 56 55 53 50 27 50 51 59 55 52 51 51 54 52 46 46 45 46 46 44 44 49 49 48 48 46 41 37 34 37 34 43 51 49 53 61 60 60 62
58 58 58 57 53 54 55 52 52 41 31 46 49 47 47 48 49 49 49 53 50 45 45 47 47 48 48 47 47 46 42 40 35 35 31 39 40 39 41 50 51 57 61 62 63
57 57 56 60 53 57 56 55 41 35 48 45 45 46 45 45 45 46 44 42 42 37 36 40 43 47 49 44 44 44 39 29 26 23 29 41 36 48 49 51 53 57 60 62 63
56 57 56 58 59 57 55 45 33 44 43 49 48 45 44 46 46 44 39 38 41 39 36 36 39 44 46 48 43 41 43 29 20 28 38 32 31 47 51 56 56 57 60 61 60
56 55 54 55 56 55 48 37 41 46 49 47 48 41 40 45 45 40 37 38 43 44 40 36 40 43 45 45 49 38 35 47 30 15 22 39 41 51 47 50 50 53 55 52 50
51 52 52 56 56 51 42 41 44 49 49 49 43 44 38 42 45 44 42 42 43 45 51 46 39 45 40 41 42 43 44 32 30 19 18 30 32 42 48 51 52 50 50 54 52
50 46 50 55 54 45 37 40 44 51 51 47 45 44 42 43 46 45 46 45 47 47 47 46 42 41 39 37 40 35 35 36 37 33 32 30 36 55 53 47 49 52 50 48 47
47 40 51 55 42 42 40 45 47 48 50 49 48 47 44 45 43 43 43 49 48 48 44 44 38 33 38 49 43 41 41 42 35 33 36 37 38 58 57 56 49 48 50 49 49
43 44 51 50 38 39 41 43 46 44 46 45 44 47 47 43 38 43 45 52 51 48 44 42 34 29 30 35 40 37 43 43 44 41 36 31 36 57 57 56 53 50 56 58 56
39 36 43 45 46 41 41 41 41 46 44 45 45 46 43 41 45 41 43 45 46 46 49 46 38 33 30 36 39 34 37 39 40 34 35 36 40 48 52 52 55 56 58 59 57
36 33 39 34 39 40 42 41 39 39 44 46 41 42 40 36 38 37 41 43 44 46 43 43 33 38 37 39 41 41 40 41 39 41 36 38 38 44 50 53 55 57 56 54 53
33 32 35 33 36 36 37 37 37 39 39 38 36 34 34 32 33 30 31 32 33 35 34 37 32 34 32 35 35 33 37 39 39 40 40 41 40 51 53 54 53 54 55 54 55
35 38 36 31 29 28 28 34 35 34 37 38 34 30 29 34 35 37 38 37 36 32 32 32 31 30 28 33 32 28 33 36 38 41 40 34 43 49 48 49 50 52 52 49 45
MSLP
1021.08 1020.82 1020.56 1020.22 1019.84 1019.52 1019.26 1019.05 1018.84 1018.64 1018.39 1018.07 1017.82 1017.56 1017.26 1016.94 1016.60 1016.47 1015.93 1014.31 1014.35 1014.59 1015.03 1015.38 1015.61 1015.63 1015.74 1016.05 1016.19 1016.72 1017.63 1017.40 1016.04 1014.71 1013.70 1013.11 1013.15 1012.92 1012.92 1013.31 1013.53 1013.72 1014.07 1014.41 1014.77
1021.26 1021.00 1020.69 1020.41 1020.05 1019.63 1019.29 1018.98 1018.78 1018.58 1018.33 1018.04 1017.79 1017.55 1017.26 1016.94 1016.57 1015.67 1013.74 1013.67 1013.92 1014.42 1015.08 1015.40 1015.61 1015.81 1016.14 1016.21 1016.37 1016.90 1017.49 1016.31 1014.77 1013.84 1013.39 1013.11 1013.16 1013.00 1013.22 1013.31 1013.62 1013.80 1014.19 1014.81 1015.29
1021.21 1020.93 1020.66 1020.36 1020.02 1019.64 1019.28 1019.01 1018.70 1018.42 1018.18 1017.93 1017.61 1017.33 1017.06 1016.90 1016.49 1014.26 1013.38 1013.54 1013.83 1014.17 1014.40 1014.88 1015.18 1015.65 1016.18 1016.19 1016.26 1016.46 1016.29 1015.21 1014.10 1013.51 1013.21 1013.13 1013.14 1012.99 1013.21 1013.27 1013.04 1013.30 1013.91 1015.03 1015.56
1021.26 1020.98 1020.62 1020.25 1019.88 1019.54 1019.18 1018.88 1018.66 1018.39 1018.11 1017.78 1017.52 1017.17 1016.89 1016.78 1015.86 1013.65 1013.63 1013.83 1013.98 1014.32 1014.55 1014.79 1015.18 1015.69 1015.86 1015.91 1015.50 1015.96 1014.99 1014.70 1013.77 1013.24 1013.22 1013.15 1013.01 1013.04 1012.97 1011.76 1011.85 1012.21 1012.93 1014.30 1014.98
1021.14 1020.96 1020.66 1020.27 1019.86 1019.48 1019.11 1018.73 1018.36 1018.14 1018.00 1017.74 1017.46 1017.21 1016.85 1016.56 1014.74 1013.38 1013.61 1014.03 1014.33 1014.48 1014.46 1014.75 1015.13 1015.31 1015.54 1015.33 1015.25 1015.22 1014.61 1014.27 1013.65 1013.52 1013.33 1013.27 1013.00 1013.11 1012.04 1011.57 1011.97 1012.20 1012.79 1013.38 1013.87
1020.98 1020.74 1020.45 1020.15 1019.81 1019.38 1018.92 1018.52 1018.18 1017.94 1017.71 1017.52 1017.41 1017.28 1017.08 1016.21 1013.40 1013.34 1013.59 1014.09 1014.19 1014.53 1014.59 1014.76 1014.74 1014.75 1015.10 1015.03 1015.17 1014.67 1014.51 1014.09 1013.65 1013.58 1013.46 1013.60 1012.88 1013.09 1010.52 1011.00 1011.55 1011.87 1012.13 1012.47 1012.76
1020.88 1020.62 1020.28 1019.95 1019.58 1019.11 1018.71 1018.21 1017.77 1017.57 1017.40 1017.29 1017.26 1017.21 1016.76 1014.20 1013.17 1013.62 1013.99 1014.10 1014.07 1014.19 1014.44 1014.65 1014.70 1014.98 1015.22 1015.11 1014.89 1014.84 1014.87 1014.30 1013.33 1013.30 1013.61 1013.56 1013.07 1012.28 1009.70 1010.96 1011.19 1011.34 1011.29 1011.51 1011.41
1020.60 1020.39 1020.02 1019.66 1019.28 1018.71 1018.13 1017.69 1017.19 1016.99 1016.88 1016.81 1016.92 1017.04 1015.56 1013.43 1013.40 1013.68 1013.90 1013.98 1014.13 1014.35 1014.54 1014.59 1014.57 1015.01 1015.47 1015.38 1015.36 1015.59 1015.54 1015.08 1012.88 1013.07 1013.17 1013.45 1011.81 1010.27 1009.98 1010.83 1010.61 1010.74 1010.82 1010.92 1010.35
1020.44 1020.16 1019.76 1019.41 1018.97 1018.42 1017.59 1016.99 1016.55 1016.24 1016.30 1016.39 1016.81 1016.64 1014.95 1013.55 1013.57 1013.33 1013.64 1013.98 1014.12 1014.43 1014.66 1014.75 1014.86 1015.40 1015.60 1016.00 1016.66 1016.42 1015.98 1015.30 1013.65 1012.67 1013.01 1013.23 1011.99 1010.03 1009.82 1010.49 1010.32 1010.19 1010.13 1010.02 1009.64
1020.22 1019.98 1019.54 1019.16 1018.71 1018.10 1017.19 1016.25 1016.09 1016.10 1016.29 1016.39 1016.15 1016.55 1014.13 1013.09 1012.91 1013.06 1013.28 1013.75 1014.29 1014.71 1015.14 1015.42 1015.93 1016.05 1016.21 1016.49 1016.49 1015.92 1016.16 1015.24 1014.42 1012.96 1013.25 1013.02 1011.59 1010.16 1009.66 1010.31 1010.19 1009.97 1009.51 1009.06 1008.65
1019.95 1019.79 1019.38 1018.97 1018.53 1017.88 1017.19 1016.38 1016.68 1016.70 1016.48 1015.56 1015.08 1014.03 1012.78 1012.50 1012.58 1012.98 1013.10 1013.82 1014.44 1015.15 1015.75 1015.96 1016.57 1015.86 1014.86 1015.02 1014.83 1015.35 1015.22 1014.89 1013.49 1012.74 1012.91 1012.37 1011.63 1010.76 1009.55 1009.37 1009.17 1009.03 1008.53 1007.86 1007.13
1019.55 1019.51 1019.22 1018.79 1018.42 1017.85 1017.57 1018.17 1018.62 1018.90 1017.33 1015.04 1014.25 1013.95 1012.43 1012.43 1012.76 1013.01 1013.18 1013.80 1014.52 1015.28 1015.84 1016.52 1015.90 1014.59 1014.77 1014.94 1015.23 1015.14 1014.82 1014.13 1012.88 1012.31 1012.82 1011.90 1010.63 1010.05 1009.75 1008.34 1007.56 1007.44 1006.62 1006.00 1005.31
1019.24 1019.28 1019.01 1018.61 1018.37 1018.16 1018.55 1018.67 1018.69 1018.93 1018.41 1014.98 1013.48 1012.83 1012.31 1012.49 1012.63 1012.55 1013.23 1013.83 1014.35 1015.08 1015.01 1014.91 1014.42 1014.26 1014.79 1014.88 1014.88 1014.16 1014.54 1013.14 1013.00 1012.72 1012.26 1011.24 1009.25 1009.32 1008.51 1007.47 1006.45 1005.36 1004.67 1004.33 1003.74
1018.80 1018.95 1018.86 1018.47 1018.58 1018.70 1018.63 1018.40 1018.44 1018.96 1018.34 1014.74 1013.01 1012.07 1011.94 1011.99 1012.69 1012.67 1012.67 1013.30 1014.41 1014.27 1014.82 1014.40 1013.01 1013.46 1013.93 1014.31 1014.06 1013.85 1012.87 1013.12 1013.31 1013.67 1012.84 1011.70 1005.19 1007.52 1007.31 1006.61 1005.55 1004.56 1003.35 1002.97 1002.77
1018.45 1018.61 1018.57 1018.39 1018.60 1018.47 1018.14 1018.32 1018.41 1019.03 1017.24 1013.66 1012.81 1012.33 1012.27 1012.90 1013.04 1013.12 1012.93 1013.06 1013.50 1014.05 1014.51 1013.32 1012.61 1012.80 1013.30 1012.06 1013.18 1012.49 1012.69 1012.86 1013.23 1013.60 1013.32 1011.80 1010.50 1005.22 1005.68 1005.63 1004.56 1003.21 1002.65 1001.79 1001.22
1018.27 1018.21 1018.50 1018.72 1018.58 1017.72 1017.68 1018.02 1018.46 1018.74 1015.81 1013.30 1012.74 1012.72 1013.01 1013.09 1013.55 1013.60 1013.70 1013.40 1013.42 1013.68 1013.65 1012.90 1012.50 1012.32 1011.80 1011.76 1012.13 1012.27 1012.96 1013.60 1014.14 1014.15 1012.67 1011.23 1010.67 1002.93 1004.73 1003.86 1003.15 1002.42 1001.51 1000.93 1000.38
1018.41 1018.18 1018.40 1017.84 1017.84 1017.26 1017.49 1017.74 1018.32 1016.79 1014.20 1012.84 1012.74 1013.04 1013.30 1013.34 1013.57 1013.77 1014.00 1013.85 1014.00 1013.88 1013.41 1012.53 1011.97 1011.08 1011.09 1011.89 1012.04 1012.56 1013.64 1014.65 1015.06 1015.04 1011.45 1009.23 1009.13 1001.85 1003.37 1002.87 1002.34 1001.70 1000.97 1000.21 1000.00
1018.08 1018.00 1017.98 1017.58 1017.36 1017.42 1017.73 1018.34 1016.46 1014.13 1013.37 1012.25 1012.42 1012.75 1013.05 1013.10 1013.09 1013.37 1013.64 1013.71 1013.38 1013.46 1013.38 1012.78 1010.54 1010.93 1010.74 1010.98 1010.91 1011.64 1012.55 1013.73 1013.48 1012.81 1010.25 1009.36 1006.92 1002.01 1001.46 1001.19 1001.13 1001.01 1000.79 1000.09 999.62
1017.92 1017.73 1017.68 1017.12 1017.42 1017.61 1017.93 1016.82 1014.24 1013.38 1012.66 1012.63 1012.60 1012.62 1012.74 1012.61 1012.97 1013.27 1013.57 1013.05 1012.66 1012.59 1012.96 1012.20 1009.85 1010.04 1010.15 1010.29 1010.58 1011.59 1012.12 1010.62 1011.79 1012.00 1011.66 1008.06 1004.73 1002.47 1001.34 1001.09 1001.30 1001.32 1000.95 1000.92 1000.15
1018.10 1017.32 1016.61 1016.47 1017.08 1017.59 1017.63 1015.28 1013.95 1012.70 1012.45 1012.56 1012.69 1012.59 1012.16 1012.41 1012.76 1012.99 1012.96 1011.83 1011.73 1011.42 1010.83 1011.15 1010.95 1010.11 1010.48 1010.85 1010.60 1009.88 1010.37 1011.63 1011.87 1011.47 1010.14 1007.78 1005.60 1002.41 1001.06 1001.01 1001.38 1001.39 1001.41 1000.39 1000.14
1018.15 1017.11 1015.61 1015.73 1016.83 1017.43 1016.03 1014.40 1013.51 1012.94 1012.82 1012.71 1012.26 1012.40 1012.01 1012.06 1012.13 1012.49 1011.38 1010.90 1010.92 1010.90 1011.09 1011.16 1012.04 1010.34 1011.10 1010.45 1010.13 1011.05 1010.27 1010.31 1010.57 1009.72 1007.86 1006.42 1004.65 1001.02 1000.91 1000.95 1001.28 1001.33 1001.31 1000.81 1000.22
1017.97 1016.98 1015.55 1015.44 1016.44 1015.91 1014.65 1014.15 1013.38 1012.88 1012.78 1012.65 1012.35 1012.12 1011.97 1011.77 1011.70 1011.66 1011.02 1010.53 1010.43 1010.78 1011.22 1010.98 1011.77 1011.84 1009.59 1009.07 1009.66 1009.95 1008.80 1008.78 1009.02 1007.22 1005.99 1004.59 1002.51 1000.30 1000.10 999.93 1000.53 1000.82 1000.56 1000.09 1000.01
1017.84 1016.46 1015.78 1015.58 1014.92 1014.94 1014.45 1013.55 1013.41 1013.06 1013.02 1012.84 1012.54 1012.34 1011.88 1011.56 1011.59 1011.02 1010.35 1009.94 1010.18 1010.85 1010.69 1010.99 1011.35 1011.28 1010.72 1010.21 1009.14 1009.04 1007.86 1007.45 1006.80 1006.54 1005.03 1003.57 1001.03 999.29 999.46 998.44 999.05 999.95 999.71 999.15 999.21
1018.63 1017.47 1016.18 1015.45 1014.62 1014.50 1014.12 1013.37 1013.18 1013.01 1012.70 1012.97 1013.02 1012.56 1012.37 1011.96 1011.25 1010.63 1010.50 1010.35 1010.00 1010.20 1010.44 1010.74 1010.40 1010.20 1009.50 1008.64 1008.38 1007.78 1007.24 1006.20 1005.84 1005.44 1003.44 1001.98 1000.44 1000.44 999.03 998.03 997.82 999.00 999.16 999.09 999.23
1018.85 1017.78 1016.73 1015.52 1014.85 1014.88 1014.67 1014.08 1013.19 1013.19 1012.92 1012.96 1013.32 1012.69 1012.81 1012.41 1011.80 1011.41 1011.85 1011.33 1011.06 1010.78 1010.67 1010.60 1009.67 1009.28 1008.65 1008.15 1007.60 1007.00 1006.45 1005.60 1004.89 1003.51 1002.46 1001.31 1000.82 1000.79 998.93 997.57 997.38 998.75 998.40 999.20 999.30
1019.05 1018.15 1017.73 1016.83 1016.44 1015.88 1015.25 1014.19 1014.29 1013.82 1013.96 1013.59 1014.32 1014.30 1014.46 1013.96 1014.16 1014.17 1014.45 1014.05 1013.67 1012.71 1012.70 1011.57 1009.94 1009.06 1007.63 1007.64 1006.92 1006.25 1005.61 1005.03 1003.74 1002.43 1001.15 1000.68 999.34 999.22 998.64 998.32 997.91 998.15 999.14 999.61 999.02
1018.98 1018.84 1018.73 1017.47 1017.37 1017.16 1016.16 1015.38 1014.94 1015.21 1015.24 1015.29 1015.76 1015.67 1015.14 1015.36 1015.59 1015.58 1015.66 1015.58 1015.18 1014.31 1013.03 1012.54 1011.10 1009.80 1007.42 1007.85 1007.59 1005.68 1004.88 1003.98 1003.27 1002.87 1001.84 1001.07 999.56 999.87 999.88 999.67 999.00 999.38 999.99 1000.24 1000.97
Wind_Speed
15 15 16 16 16 16 16 15 14 14 14 14 14 13 11 9 7 2 6 9 5 13 4 5 1 1 2 1 2 3 3 3 6 3 5 2 3 1 1 3 3 6 4 3 9
13 13 14 15 16 16 16 16 16 15 14 14 15 15 13 9 2 8 9 7 10 14 6 6 4 3 1 2 1 5 4 9 6 2 3 3 5 3 2 3 4 4 2 4 13
10 11 13 14 14 15 16 17 16 15 14 14 14 14 12 7 4 8 1 12 13 11 6 6 4 6 2 3 4 5 7 6 6 3 4 3 3 5 5 7 10 11 7 8 7
7 9 11 12 14 15 16 16 16 16 15 15 15 13 12 0 6 1 6 8 9 6 6 4 4 5 5 6 6 4 9 7 6 3 3 4 2 5 10 15 6 13 7 11 14
7 8 10 12 13 15 16 17 17 16 15 14 13 10 3 0 12 5 8 6 5 6 8 7 6 5 5 5 2 6 6 6 7 7 7 3 10 8 12 11 10 7 9 15 16
7 8 9 11 13 15 16 17 18 16 15 14 12 5 3 4 3 8 9 7 5 5 4 6 7 6 4 5 6 2 4 7 6 7 5 5 7 5 16 4 13 11 13 13 19
8 8 10 11 14 16 18 18 18 17 16 15 9 2 3 16 1 6 7 3 2 4 4 3 1 1 1 5 4 4 9 8 10 7 10 6 11 14 27 4 10 12 12 13 19
8 9 11 12 14 17 19 20 19 17 16 12 6 2 9 2 4 5 4 1 1 2 1 2 3 2 2 4 7 4 3 5 1 5 5 10 19 14 12 8 16 13 11 10 16
9 10 12 13 15 18 21 22 20 15 5 4 4 4 9 1 2 5 6 3 4 3 4 2 3 3 1 4 5 2 7 8 15 12 6 8 12 10 5 8 13 11 12 11 14
10 11 12 13 16 19 23 22 5 2 2 2 2 2 5 7 4 4 5 6 4 5 3 3 5 2 1 5 10 8 6 6 9 2 3 7 16 16 10 7 12 11 10 12 15
11 11 12 13 15 19 13 5 6 3 2 8 6 5 3 3 3 4 4 6 5 4 6 4 5 12 21 17 15 3 7 9 10 5 5 11 17 20 20 9 12 17 18 17 16
10 10 12 12 15 20 3 6 1 2 9 8 12 9 10 4 3 4 6 8 6 7 5 2 10 19 6 5 9 12 19 22 18 20 7 17 23 17 14 23 19 17 21 22 22
10 10 10 11 13 4 2 3 2 3 2 11 7 6 6 9 10 7 11 5 6 8 11 16 11 10 10 8 11 13 14 18 18 7 6 11 19 14 12 19 23 22 22 23 24
10 10 7 11 1 2 0 1 1 2 3 9 4 4 1 5 4 2 2 6 2 11 7 9 12 15 8 9 14 16 14 15 13 3 11 1 27 7 7 16 16 20 21 18 21
9 10 7 3 1 1 3 1 2 2 7 5 2 3 3 3 2 3 0 3 5 3 4 11 5 6 11 23 9 14 5 8 4 5 5 7 10 7 13 12 17 23 19 20 21
10 7 7 2 1 5 3 3 4 2 9 5 1 2 3 1 3 2 2 3 2 4 6 13 3 5 9 4 8 2 2 3 4 2 12 13 11 3 8 13 8 13 20 18 20
10 7 7 3 3 3 2 2 2 7 2 5 3 3 4 5 3 6 5 6 7 2 5 2 7 7 6 5 3 5 5 5 5 1 15 9 10 22 6 7 11 15 17 18 15
7 7 6 3 2 1 3 2 10 7 8 2 3 4 6 6 7 6 5 5 6 2 3 1 16 8 5 12 10 11 12 9 10 12 18 6 11 15 12 11 12 12 16 17 16
6 3 3 3 4 2 2 8 7 5 7 4 6 4 5 6 6 3 5 6 8 15 10 6 17 2 5 4 10 3 7 17 2 3 3 11 14 13 5 8 9 12 13 14 13
2 3 5 6 10 4 4 21 8 6 2 2 10 8 7 6 3 4 8 4 6 12 9 5 16 5 3 2 4 9 4 2 1 4 8 8 8 18 14 10 9 11 14 15 12
3 3 3 11 5 3 12 9 7 6 3 7 9 12 8 6 8 15 9 5 5 4 9 4 5 22 2 8 8 1 4 5 3 6 15 18 11 31 25 7 10 13 11 10 10
3 5 3 10 6 4 13 8 4 11 6 12 6 18 19 16 18 18 22 20 1 3 5 5 4 10 26 19 5 4 10 12 12 14 12 18 18 31 26 23 6 9 10 8 6
3 3 3 4 9 12 4 8 8 12 12 6 9 10 9 20 21 23 25 21 13 9 7 8 4 5 4 11 16 14 19 15 16 18 24 23 20 27 22 24 14 14 20 18 9
2 4 3 4 7 9 14 17 16 8 12 8 14 14 19 21 22 22 25 9 8 11 16 6 12 17 20 19 6 6 10 11 17 18 24 22 26 24 31 27 26 19 22 21 13
1 5 2 3 11 13 13 11 16 19 8 4 7 16 20 21 24 21 22 20 13 14 7 10 22 28 29 30 29 27 27 25 27 29 30 29 28 23 29 32 27 18 19 10 10
2 2 4 4 6 5 4 13 18 16 5 9 9 6 5 4 4 6 4 4 4 6 6 6 13 18 25 25 28 29 28 32 36 36 34 34 33 28 31 29 31 27 22 18 18
2 2 1 3 2 0 3 3 2 6 4 7 6 7 8 9 11 15 15 15 16 16 18 9 8 11 18 15 20 22 28 33 35 33 29 31 32 27 26 26 27 19 13 12 17
Wind_Direction
23 18 13 9 3 1 0 359 358 355 352 348 347 346 341 330 304 206 239 221 188 166 148 117 165 196 89 294 182 96 60 252 253 220 266 341 239 269 326 130 240 203 173 310 137
18 13 9 3 356 353 350 350 349 348 347 345 343 343 342 336 266 243 242 191 147 146 128 152 173 132 2 239 221 116 149 226 218 242 246 233 204 234 210 202 248 272 84 82 140
11 5 -0 354 348 344 342 340 339 339 341 339 338 338 332 325 326 246 215 165 159 168 147 162 123 144 221 161 206 187 215 220 258 248 203 225 246 203 202 248 217 211 194 163 166
350 345 346 343 339 334 334 331 329 330 331 332 333 332 325 203 289 336 152 160 154 162 133 167 165 174 205 213 205 211 240 224 262 254 259 226 260 244 201 235 213 225 178 168 182
331 329 328 330 330 329 326 325 322 322 321 321 326 335 347 75 247 154 142 149 137 150 177 176 172 175 202 209 238 230 252 236 239 278 258 305 245 233 257 244 250 256 171 188 197
323 324 319 317 321 320 318 318 316 315 313 311 315 315 117 248 256 159 150 145 186 172 193 161 205 207 241 228 193 274 261 267 272 237 246 207 273 140 257 209 237 224 217 205 206
310 313 310 311 313 314 310 309 307 306 306 305 295 224 171 232 308 160 151 200 180 173 180 215 210 159 333 296 296 303 303 311 246 225 237 151 286 229 252 190 243 245 232 216 220
297 304 303 307 306 306 305 305 303 300 296 286 224 191 241 312 127 136 165 327 2 199 78 10 123 175 180 301 353 321 334 317 327 145 241 142 263 251 253 202 254 246 253 237 234
294 300 300 305 306 306 306 305 301 295 252 157 140 173 261 124 186 210 148 185 117 81 48 73 97 182 317 105 350 303 243 230 300 193 161 180 250 278 249 202 252 257 255 252 255
285 290 295 303 309 312 316 309 281 356 94 187 258 41 266 228 196 170 174 146 127 111 79 103 54 198 55 124 224 222 222 251 244 237 172 226 250 271 266 204 247 268 267 255 254
281 287 294 301 310 318 338 5 12 9 6 197 209 235 258 140 103 187 154 119 105 101 175 195 134 214 225 210 231 193 223 233 252 251 198 233 238 248 268 255 243 253 257 254 243
275 284 294 307 317 323 4 67 164 219 304 257 249 259 262 164 214 223 131 147 147 195 142 95 217 232 251 200 222 239 253 260 267 263 210 260 256 246 252 265 259 240 249 252 253
273 279 289 302 314 9 15 118 312 141 248 286 223 213 238 164 224 230 149 145 165 172 196 215 223 227 223 232 238 230 235 250 257 299 233 279 269 240 245 253 265 260 250 256 256
259 263 266 297 45 316 62 216 93 135 10 273 255 265 103 173 249 28 173 149 231 222 203 229 240 223 204 226 223 263 231 255 263 292 272 74 296 194 233 242 252 257 258 250 249
259 262 232 227 253 311 185 169 104 83 309 264 231 346 30 162 114 7 256 70 201 187 167 246 191 183 213 232 182 256 198 233 203 214 344 207 268 190 203 245 247 257 251 258 249
272 251 199 171 184 233 134 102 74 40 251 300 44 41 87 13 345 45 50 27 170 212 214 240 215 195 222 215 194 135 70 23 55 98 266 206 210 119 176 212 239 256 259 252 256
314 268 181 171 241 144 147 73 335 219 297 245 214 164 200 200 229 183 175 180 202 249 229 285 217 220 161 236 160 149 94 301 327 4 242 174 205 255 257 229 214 238 258 262 260
318 275 243 227 183 178 58 62 217 185 219 308 150 142 196 157 241 191 167 235 248 183 297 229 289 181 182 202 194 202 183 180 202 246 262 110 243 268 220 237 249 247 261 259 266
300 212 221 200 174 82 131 223 238 199 193 215 319 254 233 229 204 137 227 229 218 184 197 207 266 155 185 169 150 174 199 233 349 83 9 269 276 294 254 266 288 281 285 273 268
279 232 211 178 149 127 218 245 233 203 140 189 248 209 185 183 208 182 203 194 233 192 212 277 276 193 40 2 272 174 153 38 248 179 233 250 288 272 271 287 298 312 291 283 279
268 251 247 137 115 202 226 233 237 196 177 213 245 258 252 249 230 265 265 218 192 247 184 197 197 263 72 206 215 228 245 215 202 192 248 259 253 267 283 282 284 295 296 314 308
254 238 162 148 181 212 233 233 232 247 243 249 255 253 260 270 274 260 254 244 186 195 220 178 166 244 257 256 223 253 245 231 237 246 233 252 247 261 267 272 267 277 275 273 285
262 264 195 228 221 223 231 239 225 250 235 217 241 232 252 263 267 256 260 261 241 220 215 183 208 245 209 288 261 230 246 229 245 259 253 254 250 258 270 274 245 244 268 274 274
289 270 211 217 243 252 241 245 244 230 247 243 261 266 265 263 263 272 263 255 210 222 236 190 223 236 255 267 273 241 220 231 234 253 254 251 263 267 271 265 268 264 269 277 293
238 249 320 224 233 246 248 267 262 260 225 249 253 244 255 270 266 264 275 292 296 274 247 236 248 250 252 256 250 254 261 257 256 254 251 250 252 255 264 270 270 272 274 294 293
251 311 347 318 301 277 244 236 257 269 262 248 256 351 357 279 324 304 330 356 267 336 344 305 279 282 262 246 248 244 245 256 262 259 260 258 253 254 253 265 277 272 282 286 278
280 322 324 259 319 171 232 274 304 37 259 266 2 334 289 298 330 302 288 271 255 265 280 265 275 283 273 289 278 257 245 258 259 263 257 256 255 262 269 267 276 294 303 346 7